Weather reports worldwide

Advertisment
Manston, United Kingdom (3797): temperature & dewpoint: 15.02.2018 19:00:00 - 21.02.2018 19:00:00 (GMT)Manston, United Kingdom (3797): temperature -20cm & temperature -100cm: 15.02.2018 19:00:00 - 21.02.2018 19:00:00 (GMT)Manston, United Kingdom (3797): wind speed & gusts: 15.02.2018 19:00:00 - 21.02.2018 19:00:00 (GMT)Manston, United Kingdom (3797): wind direction: 15.02.2018 19:00:00 - 21.02.2018 19:00:00 (GMT)Manston, United Kingdom (3797): reduced air pressure: 15.02.2018 19:00:00 - 21.02.2018 19:00:00 (GMT)Manston, United Kingdom (3797): visibility: 15.02.2018 19:00:00 - 21.02.2018 19:00:00 (GMT)Manston, United Kingdom (3797): sunshine duration: 15.02.2018 19:00:00 - 21.02.2018 19:00:00 (GMT)Manston, United Kingdom (3797): precipitation: 15.02.2018 19:00:00 - 21.02.2018 19:00:00 (GMT)
Date & Time tt [°C] td [°C] tt -20cm [°C] tt -100cm [°C] ff [km/h] ff [kn] fx [km/h] fx [kn] dd ppp [hPa] vv [km] sd [min] rr [mm]
21.02.2018 19:00:00 - - - - - - - - - - - - -
21.02.2018 18:00:00 3,9 0,5 - - 13 7 - - NE 1025,6 9 0 0,0
21.02.2018 17:00:00 4,3 0,1 - - 16 9 - - NNE 1025,5 11 42 0,0
21.02.2018 16:00:00 4,9 0,5 - - 21 11 - - NNE 1025,4 9 54 0,0
21.02.2018 15:00:00 5,2 0,3 - - 16 9 - - NE 1025,8 9 54 0,0
21.02.2018 14:00:00 5,9 0,5 - - 16 9 - - NE 1026,2 9 36 0,0
21.02.2018 13:00:00 5,7 0,6 - - 16 9 - - NNE 1026,9 9 42 0,0
21.02.2018 12:00:00 5,3 0,0 - - 18 10 - - NE 1027,3 9 48 0,0
21.02.2018 11:00:00 6,0 0,8 - - 21 11 - - ENE 1027,3 11 18 0,0
21.02.2018 10:00:00 5,3 0,8 - - 16 9 - - NE 1027,4 9 0 0,0
21.02.2018 09:00:00 4,8 0,7 5,2 6,2 13 7 - - NNE 1026,9 9 0 0,0
21.02.2018 08:00:00 4,3 0,0 - - 16 9 - - NNE 1026,5 8 0 0,0
21.02.2018 07:00:00 3,7 -0,3 - - 15 8 - - NNE 1026,4 8 0 0,0
21.02.2018 06:00:00 3,6 -0,7 - - 16 9 - - NE 1026,4 8 0 0,0
21.02.2018 05:00:00 3,7 -0,3 - - 16 9 - - NNE 1026,5 7 0 0,0
21.02.2018 04:00:00 3,2 -0,5 - - 13 7 - - NE 1026,3 7 0 0,0
21.02.2018 03:00:00 3,2 -0,4 - - 13 7 - - NE 1026,1 8 0 0,0
21.02.2018 02:00:00 3,4 -0,3 - - 13 7 - - NE 1025,8 7 0 0,0
21.02.2018 01:00:00 3,6 0,3 - - 15 8 - - ENE 1025,4 6 0 0,0
21.02.2018 00:00:00 4,1 0,5 - - 16 9 - - ENE 1024,8 8 - 0,0
20.02.2018 23:00:00 4,6 1,1 - - 21 11 - - NE 1024,5 7 0 0,0
20.02.2018 22:00:00 4,1 2,0 - - 15 8 - - ENE 1023,8 10 0 0,0
20.02.2018 21:00:00 4,5 2,7 - - 18 10 - - ENE 1023,1 19 0 0,0
20.02.2018 20:00:00 4,6 3,9 - - 15 8 - - E 1021,8 14 0 0,0
20.02.2018 19:00:00 5,8 4,9 - - 21 11 - - N 1020,6 14 0 0,0
20.02.2018 18:00:00 5,7 4,6 - - 21 11 - - NNW 1019,9 40 0 0,0
20.02.2018 17:00:00 6,0 4,7 - - 22 12 - - N 1019,6 30 0 0,2
20.02.2018 16:00:00 6,4 4,5 - - 31 17 48 26 N 1019,2 27 0 0,0
20.02.2018 15:00:00 6,3 4,8 - - 31 17 48 26 N 1019,1 23 0 0,0
20.02.2018 14:00:00 6,2 5,9 - - 31 17 - - N 1019,0 8 0 0,2
20.02.2018 13:00:00 5,6 5,5 - - 13 7 - - NW 1018,9 3,1 0 0,2
20.02.2018 12:00:00 6,0 5,8 - - 4 2 - - W 1019,0 2,3 0 0,2
20.02.2018 11:00:00 5,6 5,5 - - 5 3 - - S 1018,9 1,7 0 0,0
20.02.2018 10:00:00 5,4 5,3 - - 9 5 - - SSE 1018,8 2,2 0 0,4
20.02.2018 09:00:00 5,4 5,3 5,7 6,2 0 0 - - N 1018,7 1,9 0 0,2
20.02.2018 08:00:00 5,2 5,2 - - 0 0 - - N 1018,6 1,3 0 0,2
20.02.2018 07:00:00 5,1 5,0 - - 0 0 - - N 1018,2 1,4 0 0,4
20.02.2018 06:00:00 5,2 5,2 - - 0 0 - - N 1018,0 1,4 0 0,6
20.02.2018 05:00:00 5,3 5,3 - - 4 2 - - NE 1017,7 1,5 0 0,0
20.02.2018 04:00:00 5,4 5,4 - - 4 2 - - NE 1017,2 1,3 0 0,2
20.02.2018 03:00:00 5,5 5,5 - - 0 0 - - N 1017,1 1,2 0 0,2
20.02.2018 02:00:00 5,6 5,6 - - 9 5 - - E 1016,8 2,0 0 0,0
20.02.2018 01:00:00 5,7 5,7 - - 11 6 - - ENE 1016,7 5 0 0,0
20.02.2018 00:00:00 6,1 6,1 - - 13 7 - - ENE 1016,4 1,3 - 0,2
19.02.2018 23:00:00 6,6 6,6 - - 11 6 - - N 1015,9 0,5 0 0,0
19.02.2018 22:00:00 6,8 6,8 - - 9 5 - - N 1015,7 0,3 0 0,0
19.02.2018 21:00:00 7,0 7,0 - - 11 6 - - N 1015,5 0,4 0 0,2
19.02.2018 20:00:00 7,4 7,4 - - 9 5 - - NNW 1015,8 0,3 0 0,2
19.02.2018 19:00:00 7,7 7,6 - - 8 4 - - NNW 1015,4 0,3 0 0,0
19.02.2018 18:00:00 8,0 7,9 - - 8 4 - - NW 1015,2 0,6 0 0,2
19.02.2018 17:00:00 8,3 8,1 - - 9 5 - - WNW 1015,0 1,4 0 0,4
19.02.2018 16:00:00 8,5 8,3 - - 9 5 - - WNW 1015,0 1,9 0 0,8
19.02.2018 15:00:00 8,4 8,2 - - 8 4 - - W 1015,2 2,6 0 1,0
19.02.2018 14:00:00 8,2 7,9 - - 9 5 - - SW 1015,5 2,0 0 0,4
19.02.2018 13:00:00 8,1 8,0 - - 9 5 - - SW 1015,9 5 0 0,2
19.02.2018 12:00:00 7,9 7,8 - - 11 6 - - SSW 1016,4 2,4 0 0,4
19.02.2018 11:00:00 7,4 7,3 - - 15 8 - - SSW 1016,9 4,9 0 0,2
19.02.2018 10:00:00 7,2 7,1 - - 15 8 - - SSW 1017,1 5 0 0,2
19.02.2018 09:00:00 6,5 6,5 4,7 6,2 11 6 - - SSW 1017,5 3,9 0 0,6
19.02.2018 08:00:00 6,0 5,9 - - 13 7 - - S 1017,8 2,8 0 0,6
19.02.2018 07:00:00 5,8 5,7 - - 11 6 - - S 1018,1 2,2 0 0,2
19.02.2018 06:00:00 5,9 5,8 - - 15 8 - - S 1018,2 0,9 0 0,0
19.02.2018 05:00:00 6,0 5,8 - - 11 6 - - S 1018,0 1,0 0 0,0
19.02.2018 04:00:00 6,0 5,8 - - 15 8 - - S 1018,5 1,1 0 0,0
19.02.2018 03:00:00 6,4 5,7 - - 13 7 - - SSW 1018,9 4,9 0 0,0
19.02.2018 02:00:00 6,3 4,8 - - 9 5 - - S 1019,5 7 0 0,0
19.02.2018 01:00:00 6,3 4,5 - - 11 6 - - S 1019,9 8 0 0,0
19.02.2018 00:00:00 6,4 4,3 - - 9 5 - - S 1020,4 9 - 0,0
18.02.2018 23:00:00 6,4 4,2 - - 11 6 - - S 1020,7 8 0 0,0
18.02.2018 22:00:00 6,5 4,1 - - 15 8 - - S 1020,9 9 0 0,0
18.02.2018 21:00:00 6,3 4,1 - - 15 8 - - SSE 1021,2 11 0 0,0
18.02.2018 20:00:00 5,8 3,3 - - 11 6 - - SE 1021,7 15 0 0,0
18.02.2018 19:00:00 5,4 2,2 - - 5 3 - - S 1022,0 13 0 0,0
18.02.2018 18:00:00 5,8 2,3 - - 5 3 - - SSE 1022,1 18 0 0,0
18.02.2018 17:00:00 6,4 2,9 - - 11 6 - - S 1022,2 17 6 0,0
18.02.2018 16:00:00 7,6 3,4 - - 15 8 - - S 1022,1 26 42 0,0
18.02.2018 15:00:00 7,6 2,9 - - 22 12 - - SE 1022,3 16 60 0,0
18.02.2018 14:00:00 7,9 3,5 - - 21 11 - - SE 1022,6 17 60 0,0
18.02.2018 13:00:00 8,4 4,5 - - 18 10 - - SE 1022,9 18 60 0,0
18.02.2018 12:00:00 8,2 4,6 - - 18 10 - - SE 1023,2 14 60 0,0
18.02.2018 11:00:00 8,4 3,8 - - 13 7 - - SSE 1023,3 19 60 0,0
18.02.2018 10:00:00 6,4 4,6 - - 13 7 - - S 1023,6 19 60 0,0
18.02.2018 09:00:00 4,6 4,6 3,9 6,2 9 5 - - SSE 1023,8 5 54 0,0
18.02.2018 08:00:00 2,8 2,7 - - 13 7 - - SE 1023,8 3,2 - 0,2
18.02.2018 07:00:00 2,5 2,4 - - 11 6 - - SSE 1024,0 0,2 0 0,0
18.02.2018 06:00:00 2,2 2,1 - - 11 6 - - S 1023,8 - - 0,0
18.02.2018 05:00:00 2,0 2,0 - - 11 6 - - SSE 1023,5 2,1 0 0,0
18.02.2018 04:00:00 1,5 1,2 - - 11 6 - - SSE 1024,0 3,8 0 0,0
18.02.2018 03:00:00 2,2 1,5 - - 11 6 - - SSE 1024,2 11 0 0,0
18.02.2018 02:00:00 2,5 1,2 - - 9 5 - - S 1024,5 24 0 0,0
18.02.2018 01:00:00 2,3 1,0 - - 8 4 - - S 1024,4 20 0 0,0
18.02.2018 00:00:00 1,6 0,0 - - 11 6 - - SSE 1024,6 20 - 0,0
17.02.2018 23:00:00 1,3 -0,7 - - 11 6 - - S 1024,6 19 0 0,0
17.02.2018 22:00:00 1,9 -0,3 - - 11 6 - - S 1024,5 17 0 0,0
17.02.2018 21:00:00 1,9 -0,4 - - 13 7 - - SSE 1024,4 15 0 0,0
17.02.2018 20:00:00 2,5 0,1 - - 13 7 - - SSE 1024,2 14 0 0,0
17.02.2018 19:00:00 3,1 0,2 - - 13 7 - - S 1024,0 16 0 0,0
17.02.2018 18:00:00 3,6 1,6 - - 13 7 - - SSE 1023,7 13 0 0,0
17.02.2018 17:00:00 5,0 2,0 - - 13 7 - - SE 1023,1 21 54 0,0
17.02.2018 16:00:00 6,6 0,2 - - 13 7 - - SE 1022,9 25 60 0,0
17.02.2018 15:00:00 8,1 -1,3 - - 8 4 - - SE 1022,7 25 54 0,0
17.02.2018 14:00:00 8,2 -0,8 - - 9 5 - - SE 1022,6 18 54 0,0
17.02.2018 13:00:00 8,4 0,4 - - 8 4 - - SE 1022,8 26 54 0,0
17.02.2018 12:00:00 7,9 1,6 - - 8 4 - - SSE 1023,1 20 60 0,0
17.02.2018 11:00:00 7,6 3,4 - - 9 5 - - ESE 1022,9 21 60 0,0
17.02.2018 10:00:00 5,9 4,4 - - 5 3 - - E 1022,4 18 12 0,0
17.02.2018 09:00:00 3,6 2,7 4,2 6,2 5 3 - - ENE 1022,2 14 0 0,0
17.02.2018 08:00:00 1,5 0,2 - - 8 4 - - ENE 1022,1 11 0 0,0
17.02.2018 07:00:00 2,9 1,5 - - 8 4 - - E 1021,8 15 0 0,0
17.02.2018 06:00:00 3,6 1,6 - - 8 4 - - E 1021,7 18 0 0,0
17.02.2018 05:00:00 3,4 2,2 - - 9 5 - - ESE 1021,8 17 0 0,0
17.02.2018 04:00:00 2,8 1,8 - - 11 6 - - ESE 1021,9 15 0 0,0
17.02.2018 03:00:00 3,2 2,2 - - 8 4 - - E 1022,4 13 0 0,0
17.02.2018 02:00:00 3,2 2,5 - - 11 6 - - SE 1022,9 13 0 0,0
17.02.2018 01:00:00 2,5 1,6 - - 11 6 - - ESE 1023,2 12 0 0,0
17.02.2018 00:00:00 3,0 1,9 - - 15 8 - - ESE 1023,6 17 - 0,0
16.02.2018 23:00:00 3,0 2,6 - - 13 7 - - ESE 1024,1 13 0 0,0
16.02.2018 22:00:00 2,8 2,5 - - 11 6 - - SE 1024,1 7 0 0,0
16.02.2018 21:00:00 3,2 2,4 - - 11 6 - - SE 1024,5 13 0 0,0
16.02.2018 20:00:00 3,3 2,2 - - 9 5 - - SSE 1025,0 12 0 0,0
16.02.2018 19:00:00 3,0 1,3 - - 8 4 - - SSE 1025,6 14 0 0,0
16.02.2018 18:00:00 4,1 1,9 - - 9 5 - - SSW 1025,6 16 0 0,0
16.02.2018 17:00:00 5,7 2,0 - - 11 6 - - S 1025,6 20 0 0,0
16.02.2018 16:00:00 6,8 1,7 - - 11 6 - - SSE 1025,2 26 42 0,0
16.02.2018 15:00:00 7,7 2,5 - - 13 7 - - E 1025,6 19 30 0,0
16.02.2018 14:00:00 8,7 0,4 - - 16 9 - - ESE 1026,0 15 60 0,0
16.02.2018 13:00:00 8,8 -0,8 - - 8 4 - - SSW 1026,5 14 60 0,0
16.02.2018 12:00:00 8,3 0,4 - - 8 4 - - SW 1026,8 24 60 0,0
16.02.2018 11:00:00 7,0 0,8 - - 9 5 - - SSW 1026,7 19 60 0,0
16.02.2018 10:00:00 5,2 1,6 - - 8 4 - - WSW 1026,5 17 60 0,0
16.02.2018 09:00:00 2,1 0,6 4,4 6,2 16 9 - - WSW 1025,9 17 60 0,0
16.02.2018 08:00:00 0,9 -0,2 - - 21 11 - - WSW 1025,3 18 18 0,0
16.02.2018 07:00:00 0,1 -0,9 - - 15 8 - - SW 1024,4 16 0 0,0
16.02.2018 06:00:00 0,1 -1,0 - - 13 7 - - WSW 1024,0 16 0 0,0
16.02.2018 05:00:00 0,5 -1,0 - - 15 8 - - WSW 1023,8 18 0 0,0
16.02.2018 04:00:00 0,3 -1,4 - - 13 7 - - W 1022,9 21 0 0,0
16.02.2018 03:00:00 1,1 -0,9 - - 16 9 - - WSW 1022,3 16 0 0,0
16.02.2018 02:00:00 1,4 -0,7 - - 16 9 - - SW 1021,6 16 0 0,0
16.02.2018 01:00:00 2,1 -0,5 - - 18 10 - - WSW 1020,8 19 0 0,0
16.02.2018 00:00:00 2,7 -0,1 - - 16 9 - - WSW 1020,5 17 - 0,0
15.02.2018 23:00:00 2,7 -0,6 - - 16 9 - - SW 1019,8 16 0 0,0
15.02.2018 22:00:00 3,0 -0,8 - - 16 9 - - WSW 1019,2 17 0 0,0
15.02.2018 21:00:00 3,6 -0,5 - - 16 9 - - WSW 1018,1 19 0 0,0
15.02.2018 20:00:00 4,1 -0,1 - - 15 8 - - SW 1017,4 17 0 0,0
15.02.2018 19:00:00 4,8 0,3 - - 13 7 - - SW 1016,6 21 0 0,0

tt = temperature
td = dewpoint
tt -20cm = temperature -20cm
tt -100cm = temperature -100cm
ff = wind speed
fx = gusts
dd = wind direction
ppp = reduced air pressure
vv = visibility
sd = sunshine duration
rr = precipitation

Next stations